Weather History for Farmington, MO

Change the Weather History Date:

Wednesday, April 24, 2013

  Actual Average Record
Temperature  
Mean Temperature 45 °F -  
Max Temperature 53 °F 65 °F 80 °F (2007)
Min Temperature 37 °F 46 °F 33 °F (1997)
Degree Days  
Heating Degree Days 20    
Moisture  
Dew Point 31 °F    
Average Humidity 68    
Maximum Humidity 93    
Minimum Humidity 33    
Precipitation  
Precipitation 0.44 in - - ()
Sea Level Pressure  
Sea Level Pressure 30.15 in    
Wind  
Wind Speed 11 mph (WNW)    
Max Wind Speed 17 mph    
Max Gust Speed 29 mph    
Visibility 10 miles    
Events Thunderstorm    
Averages and records for this station are not official NWS values.
T = Trace of Precipitation, MM = Missing Value Source: NWS Daily Summary

Daily Weather History Graph

Daily Weather History Graph

Search for Another Location

Airport:

Trip Planner

Search our weather history database for the weather conditions in past years. The results will help you decide how hot, cold, wet, or windy it might be!

Date:

Astronomy

Apr. 24, 2013 Rise Set
Actual Time 6:14 AM CDT 7:45 PM CDT
Civil Twilight 5:46 AM CDT 8:13 PM CDT
Nautical Twilight 5:13 AM CDT 8:47 PM CDT
Astronomical Twilight 4:38 AM CDT 9:22 PM CDT
Moon 6:50 PM CDT (4/24) 5:16 AM CDT (4/24)
Length of Visible Light 14h 27m
Length of Day
13h 31m
Waxing Gibbous, 98% of the Moon is Illuminated
Apr 24
Waxing Gibbous
Apr 25
Full
May 2
Last Quarter
May 9
New
May 17
First Quarter

Hourly Weather History & Observations

Time (CDT) Temp. Windchill Dew Point Humidity Pressure Visibility Wind Dir Wind Speed Gust Speed Precip Events Conditions
12:15 AM 39.2 °F 30.5 °F 35.6 °F 87% 30.00 in 10.0 mi NNW 16.1 mph 20.7 mph N/A   Overcast
12:35 AM 39.2 °F 32.0 °F 35.6 °F 87% 30.02 in 10.0 mi WNW 11.5 mph 20.7 mph 0.01 in Thunderstorm Overcast
12:55 AM 39.2 °F 32.0 °F 35.6 °F 87% 30.02 in 7.0 mi NW 11.5 mph 17.3 mph 0.03 in Thunderstorm Overcast
1:15 AM 37.4 °F 31.4 °F 35.6 °F 93% 30.01 in 9.0 mi NNW 8.1 mph 16.1 mph 0.05 in Thunderstorm Overcast
1:35 AM 37.4 °F 29.8 °F 35.6 °F 93% 30.00 in 10.0 mi NW 11.5 mph 17.3 mph 0.11 in   Overcast
1:55 AM 37.4 °F 30.8 °F 35.6 °F 93% 30.02 in 10.0 mi NW 9.2 mph - 0.13 in   Overcast
2:15 AM 37.4 °F 28.5 °F 35.6 °F 93% 30.01 in 10.0 mi NW 15.0 mph 18.4 mph 0.02 in   Overcast
2:35 AM 37.4 °F 29.3 °F 35.6 °F 93% 30.02 in 10.0 mi NW 12.7 mph - 0.05 in   Overcast
2:55 AM 37.4 °F 29.3 °F 35.6 °F 93% 30.01 in 10.0 mi NNW 12.7 mph 21.9 mph 0.07 in   Overcast
3:15 AM 37.4 °F 31.4 °F 35.6 °F 93% 30.03 in 10.0 mi WNW 8.1 mph - 0.05 in   Overcast
3:35 AM 37.4 °F 30.8 °F 35.6 °F 93% 30.02 in 10.0 mi NW 9.2 mph - 0.10 in   Overcast
3:55 AM 37.4 °F 28.5 °F 35.6 °F 93% 30.01 in 9.0 mi NNW 15.0 mph 18.4 mph 0.16 in   Overcast
4:15 AM 37.4 °F 29.8 °F 35.6 °F 93% 30.03 in 9.0 mi WNW 11.5 mph 18.4 mph 0.05 in   Overcast
4:35 AM 37.4 °F 29.8 °F 33.8 °F 87% 30.04 in 10.0 mi NNW 11.5 mph 17.3 mph 0.05 in   Overcast
5:15 AM 37.4 °F 29.3 °F 35.6 °F 93% 30.04 in 10.0 mi NW 12.7 mph 16.1 mph N/A   Overcast
5:35 AM 37.4 °F 29.3 °F 33.8 °F 87% 30.03 in 10.0 mi NNW 12.7 mph - N/A   Overcast
5:55 AM 37.4 °F 31.4 °F 33.8 °F 87% 30.04 in 10.0 mi NNW 8.1 mph - N/A   Overcast
6:15 AM 37.4 °F 29.3 °F 33.8 °F 87% 30.03 in 10.0 mi NNW 12.7 mph 17.3 mph N/A   Overcast
6:35 AM 37.4 °F 28.9 °F 33.8 °F 87% 30.07 in 10.0 mi WNW 13.8 mph 19.6 mph N/A   Overcast
6:55 AM 37.4 °F 29.8 °F 33.8 °F 87% 30.09 in 10.0 mi NW 11.5 mph 18.4 mph N/A   Overcast
7:15 AM 37.4 °F 29.8 °F 33.8 °F 87% 30.11 in 10.0 mi WNW 11.5 mph 19.6 mph N/A   Overcast
7:35 AM 37.4 °F 29.3 °F 33.8 °F 87% 30.12 in 10.0 mi WNW 12.7 mph - N/A   Overcast
7:55 AM 37.4 °F 29.3 °F 33.8 °F 87% 30.14 in 10.0 mi WNW 12.7 mph 19.6 mph N/A   Overcast
8:15 AM 37.4 °F 29.3 °F 33.8 °F 87% 30.15 in 10.0 mi WNW 12.7 mph 18.4 mph N/A   Overcast
8:35 AM 37.4 °F 28.9 °F 33.8 °F 87% 30.15 in 10.0 mi WNW 13.8 mph 18.4 mph N/A   Overcast
8:55 AM 39.2 °F 32.0 °F 32.0 °F 75% 30.16 in 10.0 mi WNW 11.5 mph 23.0 mph N/A   Overcast
9:15 AM 37.4 °F 28.2 °F 33.8 °F 87% 30.16 in 10.0 mi WNW 16.1 mph 20.7 mph N/A   Overcast
9:35 AM 37.4 °F 27.8 °F 30.2 °F 75% 30.16 in 10.0 mi WNW 17.3 mph 25.3 mph N/A   Overcast
9:55 AM 37.4 °F 28.5 °F 30.2 °F 75% 30.16 in 10.0 mi WNW 15.0 mph 28.8 mph N/A   Overcast
10:15 AM 39.2 °F 30.5 °F 30.2 °F 70% 30.17 in 10.0 mi NNW 16.1 mph 21.9 mph N/A   Mostly Cloudy
10:35 AM 41.0 °F 33.9 °F 33.8 °F 76% 30.17 in 10.0 mi NNW 12.7 mph 23.0 mph N/A   Mostly Cloudy
10:55 AM 41.0 °F 34.7 °F 30.2 °F 65% 30.18 in 10.0 mi WNW 10.4 mph 19.6 mph N/A   Mostly Cloudy
11:15 AM 44.6 °F 38.1 °F 33.8 °F 66% 30.18 in 10.0 mi NNW 13.8 mph 19.6 mph N/A   Mostly Cloudy
11:35 AM 44.6 °F 37.8 °F 30.2 °F 57% 30.19 in 10.0 mi NW 15.0 mph 23.0 mph N/A   Overcast
11:55 AM 42.8 °F 36.2 °F 30.2 °F 61% 30.20 in 10.0 mi NNW 12.7 mph 19.6 mph N/A   Overcast
12:15 PM 44.6 °F 40.2 °F 30.2 °F 57% 30.21 in 10.0 mi NW 8.1 mph 16.1 mph N/A   Mostly Cloudy
12:35 PM 44.6 °F 40.2 °F 30.2 °F 57% 30.20 in 10.0 mi North 8.1 mph - N/A   Mostly Cloudy
12:55 PM 44.6 °F 39.7 °F 30.2 °F 57% 30.20 in 10.0 mi NW 9.2 mph - N/A   Mostly Cloudy
1:15 PM 46.4 °F 41.9 °F 30.2 °F 53% 30.21 in 10.0 mi WNW 9.2 mph 16.1 mph N/A   Mostly Cloudy
1:35 PM 46.4 °F 42.4 °F 28.4 °F 50% 30.21 in 10.0 mi West 8.1 mph - N/A   Scattered Clouds
1:55 PM 48.2 °F - 30.2 °F 50% 30.21 in 10.0 mi West 8.1 mph - N/A   Scattered Clouds
2:15 PM 48.2 °F - 30.2 °F 50% 30.22 in 10.0 mi West 5.8 mph - N/A   Scattered Clouds
2:35 PM 50.0 °F - 28.4 °F 43% 30.22 in 10.0 mi WNW 9.2 mph - N/A   Partly Cloudy
2:55 PM 50.0 °F - 28.4 °F 43% 30.22 in 10.0 mi NW 5.8 mph - N/A   Clear
3:15 PM 50.0 °F - 28.4 °F 43% 30.22 in 10.0 mi North 8.1 mph - N/A   Clear
3:35 PM 51.8 °F - 26.6 °F 38% 30.21 in 10.0 mi WNW 4.6 mph - N/A   Clear
3:55 PM 51.8 °F - 26.6 °F 38% 30.21 in 10.0 mi Calm Calm - N/A   Clear
4:15 PM 51.8 °F - 28.4 °F 41% 30.20 in 10.0 mi NNW 8.1 mph - N/A   Clear
4:35 PM 51.8 °F - 26.6 °F 38% 30.20 in 10.0 mi SW 5.8 mph - N/A   Clear
4:55 PM 53.6 °F - 28.4 °F 38% 30.21 in 10.0 mi SW 8.1 mph - N/A   Clear
5:15 PM 53.6 °F - 28.4 °F 38% 30.21 in 10.0 mi West 5.8 mph - N/A   Clear
5:35 PM 53.6 °F - 26.6 °F 35% 30.20 in 10.0 mi WSW 8.1 mph - N/A   Clear
5:55 PM 53.6 °F - 26.6 °F 35% 30.21 in 10.0 mi WNW 5.8 mph - N/A   Clear
6:15 PM 53.6 °F - 26.6 °F 35% 30.21 in 10.0 mi West 8.1 mph - N/A   Clear
6:35 PM 53.6 °F - 24.8 °F 33% 30.22 in 10.0 mi West 5.8 mph - N/A   Clear
6:55 PM 51.8 °F - 26.6 °F 38% 30.22 in 10.0 mi WSW 6.9 mph - N/A   Clear
7:15 PM 51.8 °F - 28.4 °F 41% 30.22 in 10.0 mi West 4.6 mph - N/A   Clear
7:35 PM 50.0 °F - 26.6 °F 40% 30.22 in 10.0 mi WSW 4.6 mph - N/A   Clear
7:55 PM 48.2 °F - 24.8 °F 40% 30.23 in 10.0 mi West 3.5 mph - N/A   Clear
8:15 PM 48.2 °F - 26.6 °F 43% 30.24 in 10.0 mi WNW 3.5 mph - N/A   Clear
8:35 PM 46.4 °F - 26.6 °F 46% 30.24 in 10.0 mi Calm Calm - N/A   Clear
8:55 PM 46.4 °F - 26.6 °F 46% 30.26 in 10.0 mi Calm Calm - N/A   Clear
9:55 PM 42.8 °F - 33.8 °F 70% 30.27 in 10.0 mi Calm Calm - N/A   Clear
10:15 PM 41.0 °F - 33.8 °F 76% 30.28 in 10.0 mi Calm Calm - N/A   Clear
10:35 PM 41.0 °F - 33.8 °F 76% 30.28 in 10.0 mi Calm Calm - N/A   Clear
10:55 PM 39.2 °F - 33.8 °F 81% 30.28 in 10.0 mi Calm Calm - N/A   Clear
11:35 PM 37.4 °F - 33.8 °F 87% 30.27 in 10.0 mi Calm Calm - N/A   Clear
11:55 PM 37.4 °F 33.8 °F 33.8 °F 87% 30.27 in 10.0 mi South 4.6 mph - N/A   Clear